• In Hungary
  • List of Countries
  • For 7 days
  • Water Temperature
  • Satellite Maps
  • Weather Map
  • News
  • Weather Widgets
  • user-avatar
    Login

    Hourly Weather Mongu

    Today, 21 November, Tuesday

    Time Temperature Precipitation Wind Pressure Humidity
    00:00 +25°C° 0.1 mm 1 mps 673 mmHg 57%
    01:00 +24°C° 0.1 mm 1 mps 673 mmHg 60%
    02:00 +24°C° 0 mm 1 mps 673 mmHg 63%
    03:00 +23°C° 0 mm 1 mps 673 mmHg 65%
    04:00 +23°C° 0 mm 1 mps 673 mmHg 67%
    05:00 +23°C° 0 mm 1 mps 673 mmHg 68%
    06:00 +24°C° 0 mm 1 mps 674 mmHg 64%
    07:00 +26°C° 0 mm 2 mps 674 mmHg 60%
    08:00 +27°C° 0 mm 2 mps 675 mmHg 56%
    09:00 +30°C° 0 mm 2 mps 675 mmHg 48%
    10:00 +33°C° 0 mm 3 mps 675 mmHg 41%
    11:00 +35°C° 0 mm 3 mps 675 mmHg 33%
    12:00 +35°C° 0 mm 2 mps 674 mmHg 32%
    13:00 +35°C° 0 mm 2 mps 674 mmHg 32%
    14:00 +35°C° 0 mm 2 mps 673 mmHg 31%
    15:00 +34°C° 0 mm 1 mps 673 mmHg 31%
    16:00 +34°C° 0 mm 1 mps 672 mmHg 32%
    17:00 +34°C° 0 mm 1 mps 672 mmHg 32%
    18:00 +32°C° 0 mm 1 mps 672 mmHg 36%
    19:00 +31°C° 0 mm 1 mps 672 mmHg 39%
    20:00 +29°C° 0 mm 1 mps 672 mmHg 43%
    21:00 +29°C° 0 mm 1 mps 672 mmHg 45%
    22:00 +28°C° 0 mm 1 mps 672 mmHg 47%
    23:00 +27°C° 0 mm 1 mps 673 mmHg 49%

    Tomorrow, 22 November, Wednesday

    Time Temperature Precipitation Wind Pressure Humidity
    00:00 +27°C° 0 mm 1 mps 672 mmHg 51%
    01:00 +26°C° 0 mm 1 mps 672 mmHg 54%
    02:00 +25°C° 0 mm 1 mps 671 mmHg 56%
    03:00 +25°C° 0 mm 1 mps 671 mmHg 57%
    04:00 +25°C° 0 mm 1 mps 671 mmHg 58%
    05:00 +22°C° 0 mm 0 mps 671 mmHg 59%
    06:00 +25°C° 0.2 mm 1 mps 672 mmHg 56%
    07:00 +27°C° 0.2 mm 1 mps 673 mmHg 53%
    08:00 +28°C° 0.2 mm 1 mps 673 mmHg 51%
    09:00 +31°C° 0 mm 1 mps 674 mmHg 43%
    10:00 +34°C° 0 mm 1 mps 674 mmHg 36%
    11:00 +37°C° 0 mm 1 mps 675 mmHg 29%
    12:00 +36°C° 0 mm 1 mps 674 mmHg 29%
    13:00 +36°C° 0 mm 1 mps 673 mmHg 29%
    14:00 +36°C° 0 mm 2 mps 672 mmHg 30%
    15:00 +35°C° 0 mm 2 mps 672 mmHg 32%
    16:00 +34°C° 0 mm 2 mps 671 mmHg 34%
    17:00 +32°C° 0 mm 2 mps 671 mmHg 37%
    18:00 +31°C° 0 mm 2 mps 671 mmHg 40%
    19:00 +30°C° 0 mm 2 mps 671 mmHg 43%
    20:00 +29°C° 0 mm 2 mps 671 mmHg 46%
    21:00 +28°C° 0.1 mm 2 mps 672 mmHg 49%
    22:00 +28°C° 0.1 mm 2 mps 672 mmHg 52%
    23:00 +27°C° 0.1 mm 2 mps 673 mmHg 55%

    Day after tomorrow, 23 November, Thursday

    Time Temperature Precipitation Wind Pressure Humidity
    00:00 +26°C° 0.7 mm 2 mps 672 mmHg 60%
    01:00 +26°C° 0.7 mm 1 mps 672 mmHg 66%
    02:00 +25°C° 0.7 mm 1 mps 671 mmHg 72%
    03:00 +24°C° 1.6 mm 1 mps 671 mmHg 76%
    04:00 +24°C° 1.6 mm 2 mps 671 mmHg 79%
    05:00 +23°C° 1.6 mm 2 mps 671 mmHg 83%
    06:00 +24°C° 0.4 mm 2 mps 672 mmHg 82%
    07:00 +24°C° 0.4 mm 1 mps 672 mmHg 80%
    08:00 +24°C° 0.4 mm 1 mps 673 mmHg 79%
    09:00 +27°C° 0.1 mm 1 mps 673 mmHg 69%
    10:00 +29°C° 0.1 mm 1 mps 674 mmHg 58%
    11:00 +30°C° 0.1 mm 0 mps 674 mmHg 47%
    12:00 +31°C° 0 mm 0 mps 674 mmHg 44%
    13:00 +31°C° 0 mm 0 mps 673 mmHg 40%
    14:00 +34°C° 0 mm 1 mps 672 mmHg 37%
    15:00 +33°C° 0 mm 1 mps 672 mmHg 38%
    16:00 +33°C° 0 mm 1 mps 672 mmHg 39%
    17:00 +32°C° 0 mm 1 mps 671 mmHg 40%
    18:00 +31°C° 0.2 mm 2 mps 671 mmHg 44%
    19:00 +29°C° 0.2 mm 2 mps 672 mmHg 49%
    20:00 +28°C° 0.2 mm 3 mps 672 mmHg 53%
    21:00 +27°C° 0.3 mm 2 mps 672 mmHg 58%
    22:00 +27°C° 0.3 mm 1 mps 673 mmHg 63%
    23:00 +26°C° 0.3 mm 1 mps 673 mmHg 68%

    24 November, Friday

    Time Temperature Precipitation Wind Pressure Humidity
    00:00 +25°C° 0.2 mm 1 mps 673 mmHg 70%
    01:00 +25°C° 0.2 mm 2 mps 672 mmHg 72%
    02:00 +25°C° 0.2 mm 2 mps 672 mmHg 75%
    03:00 +24°C° 0.1 mm 2 mps 672 mmHg 77%
    04:00 +24°C° 0.1 mm 2 mps 672 mmHg 79%
    05:00 +23°C° 0.1 mm 2 mps 672 mmHg 82%
    06:00 +24°C° 0.9 mm 1 mps 673 mmHg 79%
    07:00 +25°C° 0.9 mm 1 mps 674 mmHg 77%
    08:00 +25°C° 0.9 mm 1 mps 674 mmHg 75%
    09:00 +26°C° 0.4 mm 1 mps 674 mmHg 69%
    10:00 +27°C° 0.4 mm 1 mps 675 mmHg 64%
    11:00 +28°C° 0.4 mm 1 mps 675 mmHg 59%
    12:00 +29°C° 0.4 mm 1 mps 674 mmHg 56%
    13:00 +29°C° 0.4 mm 1 mps 673 mmHg 53%
    14:00 +30°C° 0.4 mm 1 mps 673 mmHg 51%
    15:00 +30°C° 0 mm 1 mps 673 mmHg 50%
    16:00 +30°C° 0 mm 2 mps 673 mmHg 50%
    17:00 +30°C° 0 mm 2 mps 673 mmHg 49%
    18:00 +28°C° 0 mm 2 mps 673 mmHg 55%
    19:00 +27°C° 0 mm 1 mps 673 mmHg 62%
    20:00 +25°C° 0 mm 1 mps 673 mmHg 68%
    21:00 +25°C° 0.3 mm 1 mps 673 mmHg 71%
    22:00 +24°C° 0.3 mm 1 mps 673 mmHg 75%
    23:00 +24°C° 0.3 mm 1 mps 673 mmHg 78%

    25 November, Saturday

    Time Temperature Precipitation Wind Pressure Humidity
    00:00 +23°C° 0.7 mm 1 mps 673 mmHg 80%
    01:00 +23°C° 0.7 mm 1 mps 672 mmHg 82%
    02:00 +23°C° 0.7 mm 1 mps 672 mmHg 84%
    03:00 +22°C° 0.3 mm 1 mps 672 mmHg 85%
    04:00 +20°C° 0.3 mm 0 mps 672 mmHg 85%
    05:00 +20°C° 0.3 mm 0 mps 672 mmHg 86%
    06:00 +23°C° 0.3 mm 1 mps 673 mmHg 82%
    07:00 +24°C° 0.3 mm 1 mps 674 mmHg 77%
    08:00 +25°C° 0.3 mm 1 mps 675 mmHg 72%
    09:00 +27°C° 0.9 mm 1 mps 675 mmHg 66%
    10:00 +29°C° 0.9 mm 1 mps 675 mmHg 59%
    11:00 +31°C° 0.9 mm 1 mps 675 mmHg 52%
    12:00 +31°C° 0.2 mm 2 mps 674 mmHg 48%
    13:00 +32°C° 0.2 mm 2 mps 673 mmHg 45%
    14:00 +32°C° 0.2 mm 2 mps 673 mmHg 42%
    15:00 +32°C° 0 mm 2 mps 672 mmHg 41%
    16:00 +32°C° 0 mm 2 mps 672 mmHg 41%
    17:00 +32°C° 0 mm 2 mps 672 mmHg 40%
    18:00 +30°C° 0.1 mm 2 mps 672 mmHg 48%
    19:00 +28°C° 0.1 mm 2 mps 672 mmHg 56%
    20:00 +26°C° 0.1 mm 2 mps 672 mmHg 63%
    21:00 +25°C° 0.1 mm 2 mps 672 mmHg 67%
    22:00 +25°C° 0.1 mm 2 mps 672 mmHg 71%
    23:00 +24°C° 0.1 mm 2 mps 672 mmHg 74%

    26 November, Sunday

    Time Temperature Precipitation Wind Pressure Humidity
    00:00 +24°C° 0.1 mm 2 mps 672 mmHg 77%
    01:00 +23°C° 0.1 mm 2 mps 672 mmHg 79%
    02:00 +23°C° 0.1 mm 2 mps 672 mmHg 81%
    03:00 +21°C° 0.5 mm 2 mps 672 mmHg 83%
    04:00 +21°C° 0.5 mm 2 mps 672 mmHg 85%
    05:00 +20°C° 0.5 mm 2 mps 672 mmHg 86%
    06:00 +21°C° 0.1 mm 2 mps 673 mmHg 82%
    07:00 +23°C° 0.1 mm 2 mps 673 mmHg 77%
    08:00 +25°C° 0.1 mm 3 mps 674 mmHg 73%
    09:00 +27°C° 0.1 mm 3 mps 674 mmHg 65%
    10:00 +29°C° 0.1 mm 3 mps 675 mmHg 57%
    11:00 +31°C° 0.1 mm 3 mps 675 mmHg 49%
    12:00 +33°C° 0.1 mm 3 mps 674 mmHg 44%
    13:00 +34°C° 0.1 mm 2 mps 674 mmHg 40%
    14:00 +35°C° 0.1 mm 2 mps 673 mmHg 36%
    15:00 +35°C° 0 mm 2 mps 673 mmHg 37%
    16:00 +34°C° 0 mm 2 mps 673 mmHg 39%
    17:00 +34°C° 0 mm 2 mps 672 mmHg 40%
    18:00 +31°C° 0 mm 2 mps 673 mmHg 46%
    19:00 +29°C° 0 mm 2 mps 673 mmHg 51%
    20:00 +28°C° 0 mm 2 mps 673 mmHg 57%
    21:00 +27°C° 0.5 mm 2 mps 673 mmHg 62%
    22:00 +26°C° 0.5 mm 2 mps 674 mmHg 67%
    23:00 +25°C° 0.5 mm 2 mps 674 mmHg 72%
    Show more